When you browse on this site, cookies collect data to enhance your experience and personalize the content and advertising you see.
Visit our Privacy Policy to learn more. By continuing to use the site, you agree to this use of cookies and data.
  • en Suisse
  • Liste des pays
  • À 7 jours
  • Température de l'eau
  • Carte satellitaire
  • Carte météo
  • Widgets météo
  • user-avatar
    Se connecter

    Météo par heure à Larnaka

    Ce jour, 26 Juin, Mercredi

    Heure Température Précipitation Vent Pression Humidité
    00:00 +30°C° 0 mm 3 m/s 756 mmHg 42%
    01:00 +30°C° 0 mm 3 m/s 756 mmHg 44%
    02:00 +29°C° 0 mm 2 m/s 756 mmHg 46%
    03:00 +29°C° 0 mm 2 m/s 756 mmHg 47%
    04:00 +29°C° 0 mm 2 m/s 756 mmHg 48%
    05:00 +29°C° 0 mm 2 m/s 756 mmHg 49%
    06:00 +31°C° 0 mm 1 m/s 756 mmHg 45%
    07:00 +32°C° 0 mm 1 m/s 756 mmHg 40%
    08:00 +34°C° 0 mm 1 m/s 756 mmHg 35%
    09:00 +36°C° 0 mm 2 m/s 757 mmHg 32%
    10:00 +38°C° 0 mm 2 m/s 757 mmHg 28%
    11:00 +39°C° 0 mm 3 m/s 757 mmHg 25%
    12:00 +40°C° 0 mm 4 m/s 757 mmHg 25%
    13:00 +41°C° 0 mm 5 m/s 757 mmHg 26%
    14:00 +41°C° 0 mm 7 m/s 757 mmHg 26%
    15:00 +41°C° 0 mm 7 m/s 757 mmHg 25%
    16:00 +40°C° 0 mm 7 m/s 756 mmHg 25%
    17:00 +40°C° 0 mm 8 m/s 756 mmHg 25%
    18:00 +38°C° 0 mm 7 m/s 756 mmHg 30%
    19:00 +35°C° 0 mm 7 m/s 756 mmHg 34%
    20:00 +33°C° 0 mm 6 m/s 756 mmHg 38%
    21:00 +32°C° 0 mm 6 m/s 756 mmHg 38%
    22:00 +32°C° 0 mm 6 m/s 756 mmHg 39%
    23:00 +30°C° 0 mm 6 m/s 756 mmHg 39%

    Demain, 27 Juin, Jeudi

    Heure Température Précipitation Vent Pression Humidité
    00:00 +29°C° 0 mm 6 m/s 755 mmHg 37%
    01:00 +29°C° 0 mm 6 m/s 755 mmHg 36%
    02:00 +28°C° 0 mm 6 m/s 755 mmHg 34%
    03:00 +28°C° 0 mm 6 m/s 755 mmHg 38%
    04:00 +27°C° 0 mm 5 m/s 755 mmHg 42%
    05:00 +27°C° 0 mm 5 m/s 755 mmHg 46%
    06:00 +29°C° 0 mm 5 m/s 755 mmHg 42%
    07:00 +32°C° 0 mm 5 m/s 755 mmHg 38%
    08:00 +35°C° 0 mm 5 m/s 755 mmHg 35%
    09:00 +36°C° 0 mm 6 m/s 755 mmHg 34%
    10:00 +38°C° 0 mm 6 m/s 755 mmHg 33%
    11:00 +39°C° 0 mm 7 m/s 755 mmHg 33%
    12:00 +39°C° 0 mm 8 m/s 755 mmHg 33%
    13:00 +39°C° 0 mm 8 m/s 755 mmHg 33%
    14:00 +39°C° 0 mm 9 m/s 755 mmHg 33%
    15:00 +38°C° 0 mm 9 m/s 754 mmHg 33%
    16:00 +38°C° 0 mm 9 m/s 754 mmHg 33%
    17:00 +37°C° 0 mm 9 m/s 753 mmHg 34%
    18:00 +35°C° 0 mm 9 m/s 753 mmHg 39%
    19:00 +33°C° 0 mm 9 m/s 753 mmHg 45%
    20:00 +31°C° 0 mm 8 m/s 753 mmHg 50%
    21:00 +31°C° 0 mm 8 m/s 753 mmHg 52%
    22:00 +29°C° 0 mm 8 m/s 753 mmHg 54%
    23:00 +29°C° 0 mm 7 m/s 753 mmHg 56%

    Après-demain, 28 Juin, Vendredi

    Heure Température Précipitation Vent Pression Humidité
    00:00 +28°C° 0 mm 7 m/s 753 mmHg 60%
    01:00 +28°C° 0 mm 7 m/s 752 mmHg 63%
    02:00 +27°C° 0 mm 6 m/s 752 mmHg 67%
    03:00 +27°C° 0 mm 6 m/s 752 mmHg 67%
    04:00 +27°C° 0 mm 6 m/s 752 mmHg 67%
    05:00 +27°C° 0 mm 5 m/s 752 mmHg 68%
    06:00 +29°C° 0 mm 5 m/s 752 mmHg 63%
    07:00 +30°C° 0 mm 5 m/s 752 mmHg 58%
    08:00 +33°C° 0 mm 5 m/s 752 mmHg 53%
    09:00 +34°C° 0 mm 6 m/s 752 mmHg 53%
    10:00 +35°C° 0 mm 6 m/s 752 mmHg 53%
    11:00 +35°C° 0 mm 7 m/s 752 mmHg 54%
    12:00 +36°C° 0 mm 7 m/s 752 mmHg 52%
    13:00 +36°C° 0 mm 7 m/s 751 mmHg 50%
    14:00 +37°C° 0 mm 8 m/s 751 mmHg 49%
    15:00 +37°C° 0 mm 8 m/s 751 mmHg 49%
    16:00 +37°C° 0 mm 8 m/s 751 mmHg 49%
    17:00 +37°C° 0 mm 8 m/s 750 mmHg 49%
    18:00 +35°C° 0 mm 8 m/s 750 mmHg 52%
    19:00 +33°C° 0 mm 8 m/s 750 mmHg 54%
    20:00 +32°C° 0 mm 8 m/s 750 mmHg 57%
    21:00 +32°C° 0 mm 7 m/s 751 mmHg 54%
    22:00 +32°C° 0 mm 7 m/s 751 mmHg 50%
    23:00 +32°C° 0 mm 6 m/s 751 mmHg 47%

    29 Juin, Samedi

    Heure Température Précipitation Vent Pression Humidité
    00:00 +30°C° 0 mm 6 m/s 751 mmHg 50%
    01:00 +30°C° 0 mm 6 m/s 750 mmHg 53%
    02:00 +29°C° 0 mm 6 m/s 750 mmHg 55%
    03:00 +29°C° 0 mm 5 m/s 750 mmHg 59%
    04:00 +29°C° 0 mm 5 m/s 750 mmHg 62%
    05:00 +28°C° 0 mm 4 m/s 750 mmHg 66%
    06:00 +30°C° 0 mm 4 m/s 750 mmHg 61%
    07:00 +33°C° 0 mm 3 m/s 751 mmHg 55%
    08:00 +34°C° 0 mm 2 m/s 751 mmHg 50%
    09:00 +35°C° 0 mm 3 m/s 751 mmHg 49%
    10:00 +36°C° 0 mm 4 m/s 751 mmHg 48%
    11:00 +36°C° 0 mm 5 m/s 751 mmHg 47%
    12:00 +37°C° 0 mm 5 m/s 751 mmHg 44%
    13:00 +38°C° 0 mm 6 m/s 751 mmHg 42%
    14:00 +38°C° 0 mm 7 m/s 751 mmHg 39%
    15:00 +38°C° 0 mm 7 m/s 751 mmHg 40%
    16:00 +36°C° 0 mm 7 m/s 751 mmHg 40%
    17:00 +37°C° 0 mm 8 m/s 751 mmHg 41%
    18:00 +35°C° 0 mm 7 m/s 751 mmHg 42%
    19:00 +34°C° 0 mm 7 m/s 751 mmHg 44%
    20:00 +32°C° 0 mm 7 m/s 752 mmHg 46%
    21:00 +32°C° 0 mm 7 m/s 752 mmHg 43%
    22:00 +32°C° 0 mm 6 m/s 752 mmHg 40%
    23:00 +32°C° 0 mm 6 m/s 752 mmHg 36%

    30 Juin, Dimanche

    Heure Température Précipitation Vent Pression Humidité
    00:00 +30°C° 0 mm 5 m/s 752 mmHg 39%
    01:00 +29°C° 0 mm 5 m/s 752 mmHg 41%
    02:00 +29°C° 0 mm 4 m/s 752 mmHg 44%
    03:00 +28°C° 0 mm 4 m/s 751 mmHg 54%
    04:00 +27°C° 0 mm 3 m/s 751 mmHg 64%
    05:00 +27°C° 0 mm 3 m/s 751 mmHg 74%
    06:00 +28°C° 0 mm 3 m/s 752 mmHg 67%
    07:00 +30°C° 0 mm 3 m/s 752 mmHg 61%
    08:00 +33°C° 0 mm 3 m/s 752 mmHg 55%
    09:00 +33°C° 0 mm 3 m/s 753 mmHg 54%
    10:00 +34°C° 0 mm 3 m/s 753 mmHg 53%
    11:00 +34°C° 0 mm 4 m/s 753 mmHg 53%
    12:00 +34°C° 0 mm 4 m/s 753 mmHg 53%
    13:00 +34°C° 0 mm 3 m/s 753 mmHg 54%
    14:00 +34°C° 0 mm 3 m/s 753 mmHg 55%
    15:00 +34°C° 0 mm 3 m/s 753 mmHg 55%
    16:00 +34°C° 0 mm 3 m/s 753 mmHg 56%
    17:00 +34°C° 0 mm 2 m/s 753 mmHg 56%
    18:00 +32°C° 0 mm 2 m/s 753 mmHg 58%
    19:00 +31°C° 0 mm 2 m/s 753 mmHg 60%
    20:00 +30°C° 0 mm 2 m/s 753 mmHg 62%
    21:00 +30°C° 0 mm 2 m/s 753 mmHg 55%
    22:00 +30°C° 0 mm 3 m/s 754 mmHg 49%
    23:00 +30°C° 0 mm 3 m/s 754 mmHg 42%

    1 Juillet, Lundi

    Heure Température Précipitation Vent Pression Humidité
    00:00 +29°C° 0 mm 5 m/s 754 mmHg 39%
    01:00 +28°C° 0 mm 7 m/s 754 mmHg 37%
    02:00 +28°C° 0 mm 9 m/s 753 mmHg 34%
    03:00 +27°C° 0 mm 9 m/s 754 mmHg 36%
    04:00 +27°C° 0 mm 9 m/s 754 mmHg 38%
    05:00 +26°C° 0 mm 9 m/s 754 mmHg 40%
    06:00 +28°C° 0 mm 9 m/s 754 mmHg 36%
    07:00 +31°C° 0 mm 9 m/s 754 mmHg 31%
    08:00 +33°C° 0 mm 10 m/s 754 mmHg 26%
    09:00 +34°C° 0 mm 9 m/s 755 mmHg 26%
    10:00 +35°C° 0 mm 9 m/s 755 mmHg 25%
    11:00 +37°C° 0 mm 8 m/s 755 mmHg 24%
    12:00 +37°C° 0 mm 8 m/s 755 mmHg 24%
    13:00 +38°C° 0 mm 7 m/s 755 mmHg 25%
    14:00 +38°C° 0 mm 7 m/s 755 mmHg 25%
    15:00 +36°C° 0 mm 6 m/s 755 mmHg 31%
    16:00 +34°C° 0 mm 5 m/s 755 mmHg 36%
    17:00 +33°C° 0 mm 4 m/s 755 mmHg 41%
    18:00 +31°C° 0 mm 3 m/s 755 mmHg 45%
    19:00 +29°C° 0 mm 3 m/s 755 mmHg 50%
    20:00 +28°C° 0 mm 2 m/s 755 mmHg 54%
    21:00 +27°C° 0 mm 2 m/s 755 mmHg 47%
    22:00 +27°C° 0 mm 3 m/s 755 mmHg 39%
    23:00 +27°C° 0 mm 4 m/s 755 mmHg 31%
    Voir plus